sat.trackr.live / text

‹ back to catalog

ONEWEB-0124

NORAD 47270 · 2020-100N

PAYLOAD ACTIVE UNKNOWN

§ Identity

Operator
Country
UK
Launch date
2020-12-18
Launch site
VOSTO
Launch vehicle
Mass (kg)
RCS (m²)

Purposes: comms

External: N2YO · Heavens-Above · Gunter

§ Orbital elements

Epoch: 2026-05-25T02:19:22.923840Z

Period
109.72 min
Inclination
87.8948°
Eccentricity
0.0001865
Mean motion
13.12443370 rev/d
Perigee alt
1,212.3 km
Apogee alt
1,215.1 km
Semi-major
7,591.9 km
B*
6.7221e-4
RAAN
355.2657°
Arg perigee
83.9414°
Mean anomaly
276.1927°
Rev number
26,154

§ Raw data

ONEWEB-01241 47270U 20100N   26145.09679310  .00000255  00000+0  67221-3 0  99982 47270  87.8948 355.2657 0001865  83.9414 276.1927 13.12443370261548

JSON: /api/v1/satellites/47270 · /tle

For live sub-satellite position, see the globe view (requires WebGL).

§ Visibility from observer

Set your observer location to see the next 7 days of passes ≥ 10°. The values pass through the URL so the page stays shareable.

No JS? Fill the form by hand. The geolocation button needs JavaScript.